www.pogodaiklimat.ru

Погода и климат >> Архив погоды >> Бельгия >> Buzenol


ПОГОДА в Buzenol

  • Прогноз погоды в Buzenol
  • Монитор погоды в Buzenol
  • Климат города

АРХИВ ПОГОДЫ в Buzenol

Время (UTC), дата Ветер
(напр.,м/с)
 
Видим.   Явления Облачность Т
(С)
Тd
(С)
f
(%)
Тe
(С)
Тes
(С)
Комфортность P
(гПа)
Po
(гПа)
Тmin
(С)
Tmax
(С)
R
(мм)
R24
(мм)
S
(см)
10 11.10 ЮЗ 2 н/о н/о +16.1 +12.3 78 +16 +16 1013.8 975.9 43
11 11.10 ЮЗ 5 н/о н/о +18.2 +11.9 67 +18 +18 1013.1 975.5 52
12 11.10 ЮЗ 5 н/о н/о +20.9 +11.5 55 +23 +23 комфорт 1012.1 974.8 145
13 11.10 ЮЗ 5 н/о н/о +20.8 +11.0 53 +23 +23 комфорт 1012.0 974.7 134
14 11.10 ЮЗ 6 н/о н/о +22.1 +11.2 50 +24 +24 комфорт 1011.5 974.5 119
15 11.10 ЮЗ 6 н/о н/о +22.1 +11.0 49 +24 +24 комфорт 1011.6 974.4 85
16 11.10 Ю 3 н/о н/о +21.2 +11.1 52 +23 +23 комфорт 1011.9 974.7 38
17 11.10 Ю 3 н/о н/о +19.4 +11.2 59 +21 +21 комфорт 1012.5 975.0 11
18 11.10 Ю 3 н/о н/о +18.4 +10.9 62 +19 +19 1013.3 975.7 +22.5
19 11.10 Ю 2 н/о н/о +17.0 +10.5 66 +17 +17 1013.8 976.0
20 11.10 Ю 2 н/о н/о +15.9 +10.5 70 +16 +16 1014.3 976.4
21 11.10 Ю 2 н/о н/о +16.1 +10.5 69 +16 +16 1014.6 976.6
22 11.10 Ю 2 н/о н/о +14.3 +9.8 74 +14 +14 1015.3 977.0
23 11.10 З 2 н/о н/о +16.6 +11.1 70 +17 +17 1016.0 978.0
00 12.10 В 1 н/о н/о +13.8 +10.8 82 +14 +14 1016.5 978.2 68
01 12.10 В 1 н/о н/о +13.4 +11.4 88 +14 +14 1017.6 979.2
02 12.10 штиль 0 н/о н/о +13.4 +11.6 89 +13 +13 1017.3 978.9
03 12.10 штиль 0 н/о н/о +13.0 +11.5 91 +12 +12 1018.0 979.5
04 12.10 З 1 н/о н/о +12.3 +11.1 92 +12 +12 1018.8 980.2
05 12.10 ЮЗ 1 н/о н/о +12.6 +11.4 92 +13 +13 1019.3 980.7
06 12.10 ЮЗ 1 н/о н/о +13.1 +11.5 90 +13 +13 1019.6 981.2 +12.3
07 12.10 Ю 1 н/о н/о +13.5 +11.9 90 +14 +14 1020.4 981.9 3
08 12.10 Ю 1 н/о н/о +15.1 +13.1 88 +16 +16 1020.7 982.4 17
09 12.10 Ю 4 н/о н/о +18.3 +13.4 73 +19 +19 1020.7 982.8 85
10 12.10 ЮЗ 4 н/о н/о +20.0 +13.4 66 +22 +22 комфорт 1020.7 983.0 120
11 12.10 ЮЗ 4 н/о н/о +20.6 +13.4 63 +23 +23 комфорт 1020.3 982.7 116
12 12.10 ЮЗ 5 н/о н/о +21.8 +13.5 59 +25 +25 комфорт 1020.1 982.7 132
13 12.10 ЮЗ 4 н/о н/о +22.7 +13.8 57 +26 +26 жарко 1020.0 982.7 114
14 12.10 ЮЗ 5 н/о н/о +23.7 +13.6 53 +26 +26 жарко 1019.8 982.7 118
15 12.10 ЮЗ 4 н/о н/о +23.2 +13.4 54 +26 +26 жарко 1020.0 982.8 69
16 12.10 ЮЗ 3 н/о н/о +22.3 +13.4 57 +25 +25 комфорт 1020.2 982.8 42
17 12.10 ЮВ 1 н/о н/о +19.5 +13.7 69 +22 +22 комфорт 1020.7 983.0 11
18 12.10 Ю 1 н/о н/о +16.7 +13.9 84 +18 +18 1021.3 983.2 +23.7
19 12.10 Ю 1 н/о н/о +16.1 +13.3 83 +17 +17 1021.8 983.6
20 12.10 ЮВ 1 н/о н/о +15.2 +12.9 86 +16 +16 1022.4 984.0
21 12.10 штиль 0 н/о н/о +14.1 +12.5 90 +14 +14 1022.7 984.2
22 12.10 Ю 1 н/о н/о +14.5 +12.7 89 +15 +15 1022.5 984.0
23 12.10 З 1 н/о н/о +15.5 +12.6 83 +16 +16 1022.1 983.8
00 13.10 штиль 0 н/о н/о +14.6 +12.3 86 +14 +14 1022.2 983.8 83
01 13.10 Ю 1 н/о н/о +14.2 +12.1 87 +15 +15 1022.0 983.6
02 13.10 Ю 1 н/о н/о +14.3 +11.8 85 +15 +15 1021.9 983.3
03 13.10 СВ 1 н/о н/о +12.2 +10.8 91 +12 +12 1022.2 983.4
04 13.10 СВ 2 н/о н/о +11.3 +10.2 93 +10 +10 1022.4 983.6
05 13.10 В 1 н/о н/о +11.0 +10.0 94 +11 +11 1022.1 983.2
06 13.10 В 2 н/о н/о +10.7 +9.7 94 +9 +9 1021.9 983.0 +10.7
07 13.10 СВ 2 н/о н/о +10.6 +9.6 94 +9 +9 1022.1 983.2 9
08 13.10 Ю 2 н/о н/о +16.2 +12.8 80 +16 +16 1021.1 983.0 44
09 13.10 Ю 3 н/о н/о +18.5 +12.9 70 +19 +19 1020.8 983.0 84
10 13.10 ЮЗ 4 н/о н/о +19.9 +13.0 64 +22 +22 комфорт 1020.3 982.7 113
11 13.10 ЮЗ 5 н/о н/о +21.9 +12.5 55 +24 +24 комфорт 1019.4 982.1 137
12 13.10 ЮЗ 6 н/о н/о +23.6 +11.6 47 +25 +25 комфорт 1018.1 981.0 153
13 13.10 ЮЗ 7 н/о н/о +24.2 +11.5 45 +26 +26 жарко 1017.2 980.2 147
14 13.10 ЮЗ 7 н/о н/о +24.9 +10.9 41 +26 +26 жарко 1016.4 979.5 126
15 13.10 ЮЗ 6 н/о н/о +24.8 +10.4 40 +26 +26 жарко 1015.8 978.8 93
16 13.10 Ю 4 н/о н/о +23.8 +11.1 45 +25 +25 комфорт 1015.2 978.2 51
17 13.10 Ю 4 н/о н/о +21.6 +11.4 52 +24 +24 комфорт 1015.2 977.9 10
18 13.10 Ю 3 н/о н/о +20.0 +11.3 57 +22 +22 комфорт 1015.5 977.9 +25.1
19 13.10 Ю 1 н/о н/о +17.9 +10.8 63 +19 +19 1015.3 977.4
20 13.10 СВ 1 н/о н/о +14.2 +11.7 85 +15 +15 1015.9 977.7
21 13.10 Ю 1 н/о н/о +13.7 +11.2 85 +14 +14 1015.9 977.6
22 13.10 В 1 н/о н/о +12.7 +11.0 89 +13 +13 1015.5 977.1
23 13.10 штиль 0 н/о н/о +12.3 +10.7 90 +12 +12 1015.1 976.6
00 14.10 ЮВ 1 н/о н/о +12.1 +10.6 91 +12 +12 1014.7 976.2 97
01 14.10 штиль 0 н/о н/о +12.6 +10.6 88 +12 +12 1014.2 975.7
02 14.10 ЮВ 1 н/о н/о +12.9 +10.5 85 +13 +13 1013.7 975.3
03 14.10 ЮВ 1 н/о н/о +12.0 +10.0 88 +12 +12 1013.2 974.7
04 14.10 ЮЗ 1 н/о н/о +11.8 +9.7 87 +12 +12 1013.0 974.6
05 14.10 Ю 2 н/о н/о +11.6 +9.6 88 +10 +10 1012.6 974.1
06 14.10 штиль 0 н/о н/о +11.4 +9.7 89 +11 +11 1012.3 973.8 +11.4
07 14.10 ЮЗ 1 н/о н/о +11.1 +9.7 91 +11 +11 1012.4 973.8 8
08 14.10 ЮЗ 3 н/о н/о +15.2 +10.7 74 +15 +15 1012.1 974.1 38
09 14.10 ЮЗ 5 н/о н/о +17.8 +10.7 63 +17 +17 1011.6 973.9 81
10 14.10 ЮЗ 8 н/о н/о +20.7 +8.7 46 +22 +22 комфорт 1010.6 973.3 120
11 14.10 ЮЗ 8 н/о н/о +22.7 +7.1 37 +24 +24 комфорт 1009.9 972.9 148
12 14.10 ЮЗ 8 н/о н/о +23.3 +6.1 33 +24 +24 комфорт 1009.1 972.2 149
13 14.10 ЮЗ 9 н/о н/о +24.0 +5.5 30 +24 +24 комфорт 1008.4 971.6 142
14 14.10 ЮЗ 8 н/о н/о +23.7 +3.5 27 +23 +23 комфорт 1008.4 971.6 97
15 14.10 ЮЗ 7 н/о н/о +23.4 +4.6 29 +23 +23 комфорт 1008.2 971.3 77
16 14.10 ЮЗ 4 н/о н/о +22.3 +4.9 32 +23 +23 комфорт 1008.3 971.3 46
17 14.10 ЮЗ 2 н/о н/о +19.8 +5.3 39 +21 +21 комфорт 1008.9 971.6 8
18 14.10 В 1 н/о н/о +15.6 +7.6 59 +16 +16 1009.9 972.0 +24.0
19 14.10 ЮЗ 2 н/о н/о +15.5 +7.2 58 +15 +15 1010.5 972.6
20 14.10 З 1 н/о н/о +14.2 +7.8 65 +15 +15 1010.8 972.7
21 14.10 ЮЗ 2 н/о н/о +14.2 +7.3 63 +14 +14 1011.1 973.0
22 14.10 ЮЗ 3 н/о н/о +14.6 +6.6 59 +14 +14 1011.2 973.1
23 14.10 ЮЗ 2 н/о н/о +15.0 +7.9 62 +15 +15 1011.1 973.1
00 15.10 ЮЗ 2 н/о н/о +16.3 +8.0 58 +16 +16 1011.1 973.4 91
01 15.10 ЮЗ 2 н/о н/о +16.8 +7.8 55 +17 +17 1011.1 973.4
02 15.10 ЮЗ 2 н/о н/о +15.6 +8.2 61 +16 +16 1011.4 973.5
03 15.10 ЮЗ 1 н/о н/о +14.0 +7.9 67 +14 +14 1011.6 973.5
04 15.10 В 1 н/о н/о +12.7 +8.4 75 +13 +13 1011.9 973.6
05 15.10 ЮВ 1 н/о н/о +11.4 +8.3 81 +11 +11 1012.5 974.0
06 15.10 В 1 н/о н/о +10.6 +7.8 83 +10 +10 1012.9 974.3 +10.4
07 15.10 В 1 н/о н/о +10.6 +7.8 83 +10 +10 1013.7 975.1 6
08 15.10 СВ 1 н/о н/о +10.4 +8.3 87 +10 +10 1014.2 975.5 19
09 15.10 СВ 1 н/о н/о +15.6 +10.3 71 +16 +16 1013.6 975.6 62
10 15.10 ЮВ 2 н/о н/о +18.7 +9.7 56 +20 +20 1013.5 975.9 84
11 15.10 ЮЗ 3 н/о н/о +21.9 +8.3 42 +23 +23 комфорт 1012.9 975.8 138
12 15.10 З 3 н/о н/о +22.9 +6.9 36 +24 +24 комфорт 1012.9 975.8 146
13 15.10 З 2 н/о н/о +23.4 +7.3 36 +24 +24 комфорт 1012.8 975.8 140
14 15.10 ЮЗ 2 н/о н/о +23.3 +6.5 34 +24 +24 комфорт 1012.6 975.6 118
15 15.10 С 1 н/о н/о +21.4 +8.5 44 +23 +23 комфорт 1012.9 975.6 58
16 15.10 С 1 н/о н/о +20.0 +10.3 54 +23 +23 комфорт 1013.4 975.9 52
17 15.10 СВ 2 н/о н/о +16.3 +11.3 72 +16 +16 1014.6 976.6 8
18 15.10 С 3 н/о н/о +13.0 +10.1 83 +12 +12 1015.4 976.9 +23.5
19 15.10 С 2 н/о н/о +11.3 +9.1 86 +10 +10 1016.2 977.6
20 15.10 С 2 н/о н/о +10.7 +9.0 89 +9 +9 1016.3 977.6
21 15.10 С 3 н/о н/о +9.9 +8.5 91 +8 +8 1016.8 977.9
22 15.10 С 3 н/о н/о +9.1 +7.9 92 +7 +7 1017.2 978.2
23 15.10 н/о н/о +9.6 +7.7 88 1017.4 978.4
00 16.10 С 3 н/о н/о +8.1 +7.0 93 +5 +5 1018.1 978.9 83
01 16.10 С 3 н/о н/о +7.8 +6.7 93 +5 +5 1018.2 979.0
02 16.10 н/о н/о +8.5 +6.9 90 1018.7 979.5
03 16.10 С 2 н/о н/о +6.6 +5.7 94 +4 +4 1019.2 979.7
04 16.10 СВ 2 н/о н/о +5.7 +4.9 95 +3 +3 1019.1 979.6
05 16.10 С 2 н/о н/о +5.9 +5.1 95 +3 +3 1019.1 979.6
06 16.10 С 2 н/о н/о +5.6 +4.8 95 +3 +3 1019.7 980.1 +5.6
07 16.10 СЗ 1 н/о н/о +6.9 +6.1 95 +6 +6 1019.8 980.4 9
08 16.10 СВ 2
{2}
н/о н/о +11.2 +9.3 88 +10 +10 1019.6 980.8
09 16.10 В 1
{3}
н/о н/о +15.8 +11.3 75 +17 +17 1018.9 980.8
10 16.10 ЮВ 2 н/о н/о +18.4 +9.8 57 +19 +19 1019.0 981.2 97
11 16.10 ЮВ 3 н/о н/о +20.8 +8.2 44 +22 +22 комфорт 1018.4 980.9 114
12 16.10 ЮВ 4 н/о н/о +22.1 +7.4 39 +23 +23 комфорт 1018.2 980.8 139
13 16.10 Ю 2
{4}
н/о н/о +21.9 +9.1 44 +23 +23 комфорт 1018.2 980.8
14 16.10 Ю 4 н/о н/о +22.3 +7.7 39 +23 +23 комфорт 1018.1 980.7 91
15 16.10 ЮВ 3
{6}
н/о н/о +22.6 +8.0 39 +24 +24 комфорт 1018.0 980.7
16 16.10 ЮВ 2 н/о н/о +21.9 +8.7 43 +23 +23 комфорт 1017.9 980.6 64
17 16.10 СВ 1
{3}
н/о н/о +16.2 +10.5 69 +17 +17 1018.8 980.7
18 16.10 СВ 2
{6}
н/о н/о +13.7 +10.2 79 +13 +13 1019.5 981.0 +22.7
19 16.10 СВ 2 н/о н/о +11.4 +9.5 88 +10 +10 1020.1 981.3
20 16.10 С 3 н/о н/о +10.1 +8.8 92 +8 +8 1020.6 981.6
21 16.10 С 3
{3}
н/о н/о +9.4 +8.3 93 +7 +7 1020.7 981.6
22 16.10 С 3 н/о н/о +8.8 +7.9 94 +6 +6 1021.1 981.9
23 16.10 СВ 2 н/о н/о +8.2 +7.3 94 +6 +6 1020.9 981.6
00 17.10 СВ 3 н/о н/о +7.8 +6.9 94 +5 +5 1020.6 981.2 78
01 17.10 С 3
{4}
н/о н/о +7.1 +6.2 94 +4 +4 1020.6 981.2
02 17.10 С 1
{3}
н/о н/о +6.8 +6.0 95 +6 +6 1020.5 981.0
03 17.10 СВ 2
{4}
н/о н/о +6.5 +5.6 94 +4 +4 1020.2 980.7
04 17.10 С 3 н/о н/о +6.4 +5.7 95 +3 +3 1020.0 980.6
05 17.10 С 3
{4}
н/о н/о +7.0 +6.3 95 +4 +4 1020.4 981.0
06 17.10 СВ 2
{4}
н/о н/о +6.6 +5.8 95 +4 +4 1020.5 981.0 +6.3
07 17.10 С 1 н/о н/о +6.5 +5.8 95 +5 +5 1020.7 981.2 4
08 17.10 С 2 н/о н/о +8.5 +7.6 94 +6 +6 1020.5 981.3 29
09 17.10 СВ 2
{3}
н/о н/о +13.9 +10.9 82 +13 +13 1019.7 981.3
10 17.10 В 1 н/о н/о +17.1 +10.6 66 +18 +18 1019.5 981.5 105
11 17.10 Ю 1 н/о н/о +19.5 +10.3 55 +22 +22 комфорт 1018.8 981.2 123
12 17.10 ЮВ 2 н/о н/о +20.9 +9.8 49 +23 +23 комфорт 1018.1 980.6 134
13 17.10 В 1 н/о н/о +21.2 +9.3 47 +23 +23 комфорт 1017.6 980.2 131
14 17.10 ЮВ 2 н/о н/о +22.1 +8.7 42 +23 +23 комфорт 1017.4 980.0 108
15 17.10 ЮВ 2 н/о н/о +22.2 +8.1 40 +23 +23 комфорт 1017.1 979.7 77
16 17.10 В 2 н/о н/о +19.3 +10.3 56 +21 +21 комфорт 1017.5 979.8 40
17 17.10 СВ 2 н/о н/о +15.3 +11.9 80 +15 +15 1018.3 980.0 7
18 17.10 С 2 н/о н/о +12.6 +10.4 86 +12 +12 1018.9 980.3 +22.4
19 17.10 СВ 3 н/о н/о +13.8 +10.0 78 +13 +13 1019.4 980.9
20 17.10 СВ 3 н/о н/о +13.2 +9.8 80 +12 +12 1020.1 981.5
21 17.10 СВ 3 н/о н/о +13.4 +10.2 81 +12 +12 1020.2 981.6
22 17.10 СВ 3 н/о н/о +13.8 +10.3 79 +13 +13 1020.3 981.8
23 17.10 СВ 2 н/о н/о +12.1 +9.9 86 +11 +11 1020.5 981.8
00 18.10 СВ 2 н/о н/о +10.5 +9.3 92 +9 +9 1020.7 981.8 83
01 18.10 СВ 3 н/о н/о +10.8 +9.3 90 +9 +9 1020.5 981.6
02 18.10 СВ 3 н/о н/о +10.9 +9.6 92 +9 +9 1020.6 981.8
03 18.10 СВ 2 н/о н/о +11.1 +9.7 91 +10 +10 1020.6 981.8
04 18.10 СВ 2 н/о н/о +10.7 +9.7 94 +9 +9 1020.8 981.9
05 18.10 СВ 3 н/о н/о +10.5 +9.3 92 +8 +8 1021.3 982.4
06 18.10 СВ 4 н/о н/о +11.4 +10.2 92 +9 +9 1021.7 982.8 +10.1
07 18.10 В 3 н/о н/о +12.5 +11.0 91 +11 +11 1021.9 983.2 2
08 18.10 В 3 н/о н/о +13.4 +11.3 87 +12 +12 1022.1 983.6 16
09 18.10 В 4 н/о н/о +14.6 +11.7 83 +13 +13 1022.2 983.8 52
10 18.10 В 4
{7}
н/о н/о +15.8 +11.5 76 +15 +15 1022.1 983.8

 

Местоположение метеостанции Buzenol (Бельгия): широта 49.62 долгота 5.58 высота над уровнем моря 322 м.

В архиве по умолчанию представлена погода в Buzenol за последнюю неделю. Архивные данные за месяц целиком и за предыдущие месяцы, начиная с января 2011 года, Вы можете получить, выбрав интересующий диапазон дат из раскрывающегося списка и нажав кнопку "Ввод!".


*Определитесь, кто Вы:
робот инопланетянин человек

Внимание! Время в таблицах - всемирное. Для получения местного времени необходимо прибавить поправку, которая в Buzenol равна 1 ч.

Смотрите также архив погоды в соседних городах и на ближайших метеорологических станциях:

Погода в Luxembourg (Люксембург) (45 км)
Погода в Saint Hubert (Бельгия) (47 км)
Погода в Humain (Бельгия) (69 км)
Погода в Charleville (Франция) (71 км)
Погода в Trier (Германия) (80 км)
Погода в Metz-Nancy Airport (Франция) (86 км)
Погода в Berus (Германия) (88 км)
Погода в Dourbes (Бельгия) (88 км)
Погода в Florennes (Бельгия) (95 км)
Погода в Spa (Бельгия) (99 км)

Пояснения к столбцам:

Ветер - указаны скорость ветра в м/с - средняя за 10 мин, порывы в срок и между сроками (в фигурных скобках) и направление, откуда дует ветер: С - северный, СВ - северо-восточный, В - восточный, ЮВ - юго-восточный, Ю - южный, ЮЗ - юго-западный, З - западный, СЗ - северо-западный.
Видимость - горизонтальная дальность видимости в метрах или километрах. При видимости от 1 до 10 км при отсутствии осадков обычно наблюдается дымка, при ухудшении видимости до 1 км и менее - туман. В сухую погоду видимость может ухудшаться дымом, пылью или мглою.
Явления - указаны атмосферные явления, наблюдавшиеся в срок или в последний час перед сроком; фигурными скобками обозначены явления, наблюдавшиеся между сроками (за 1-3 часа до срока); квадратными скобками обозначены град или гололедные отложения с указанием их диаметра в мм.
Облачность - указаны через наклонную черту общая и нижняя облачность в баллах и высота нижней границы облаков в метрах; квадратными скобками обозначены формы облаков: Ci - перистые, Cs - перисто-слоистые, Cc - перисто-кучевые, Ac - высококучевые, As - высокослоистые, Sc - слоисто-кучевые, Ns - слоисто-дождевые, Cu - кучевые, Cb - кучево-дождевые. Подробнее классификацию облаков см. в Атласе облаков (PDF).
T - Температура воздуха - температура, измеренная на высоте 2 м над землей.
Td - Температура точки росы - температура, при понижении до которой содержащийся в воздухе водяной пар достигнет насыщения.
f - Относительная влажность воздуха - влажноcть воздуха, измеренная на высоте 2 м над землей.
Te - Эффективная температура - температура, которую ощущает одетый по сезону человек в тени. Характеристика душности погоды. При расчете учитывается влияние влажности воздуха и скорости ветра на теплоощущения человека.
Tes - Эффективная температура на солнце - температура, которую ощущает человек, с поправкой на солнечный нагрев. Характеристика знойности погоды. Зависит от высоты солнца над горизонтом, облачности и скорости ветра. Ночью, в пасмурную погоду, а также при ветре 12 м/с и более поправка равна нулю.
P - Атмосферное давление - приведенное к уровню моря атмосферное давление.
Po - Атмосферное давление - измеренное на уровне метеостанции атмосферное давление.
Tmin - Минимальная температура - минимум температуры воздуха на высоте 2 м над землей.
Tmax - Максимальная температура - максимум температуры воздуха на высоте 2 м над землей.
R - Количество осадков - Количество выпавших осадков за период времени, мм. При наведении курсора мыши на число - период времени, за который выпало указанное количество осадков.
R24 - Количество осадков - Количество выпавших осадков за 24 часа, мм.
S - Снежный покров - Высота снежного покрова, см. При наведении курсора мыши на число - состояние снежного покрова и степень покрытия местности в баллах.